Weather History for KCFE - April, 2014

Change the Weather History Date:

Monday, April 14, 2014

  Actual Average (KSTC) Record (KSTC)
Temperature  
Mean Temperature 29 °F 44 °F  
Max Temperature 35 °F 56 °F 89 °F (2003)
Min Temperature 23 °F 32 °F 15 °F (1935)
Degree Days  
Heating Degree Days 36 21  
Month to date heating degree days 343  
Since 1 July heating degree days 7893  
Cooling Degree Days 0 0  
Month to date cooling degree days 0  
Year to date cooling degree days 0  
Moisture  
Dew Point 11 °F    
Average Humidity 48    
Maximum Humidity 68    
Minimum Humidity 27    
Precipitation  
Precipitation 0.00 in 0.09 in 1.50 in (1986)
Month to date precipitation 1.06  
Year to date precipitation 3.85  
Snow  
Snow 0.00 in 0.20 in 4.70 in (1993)
Month to date snowfall 1.9  
Since 1 July snowfall 44.6  
Snow Depth -    
Sea Level Pressure  
Sea Level Pressure 30.06 in    
Wind  
Wind Speed 15 mph (NW)    
Max Wind Speed 21 mph    
Max Gust Speed 29 mph    
Visibility 10 miles    
Events      
T = Trace of Precipitation, MM = Missing Value Source: NWS Daily Summary

Daily Weather History Graph

Daily Weather History Graph

Search for Another Location

Airport or City:

Trip Planner

Search our weather history database for the weather conditions in past years. The results will help you decide how hot, cold, wet, or windy it might be!

Date:

Astronomy

Apr. 14, 2014 Rise Set
Actual Time 6:32 AM CDT 7:59 PM CDT
Civil Twilight 6:01 AM CDT 8:30 PM CDT
Nautical Twilight 5:24 AM CDT 9:07 PM CDT
Astronomical Twilight 4:44 AM CDT 9:47 PM CDT
Moon 7:38 PM CDT (4/14) 6:06 AM CDT (4/14)
Length of Visible Light 14h 29m
Length of Day
13h 27m
Full, 100% of the Moon is Illuminated
Apr 14
Full
Apr 15
Full
Apr 22
Last Quarter
Apr 29
New
May 6
First Quarter

Hourly Weather History & Observations

Time (CDT) Temp. Windchill Dew Point Humidity Pressure Visibility Wind Dir Wind Speed Gust Speed Precip Events Conditions
12:15 AM 31.8 °F 20.2 °F 19.4 °F 60% 29.98 in 10.0 mi NNW 18.4 mph 28.8 mph N/A   Mostly Cloudy
12:36 AM 31.6 °F 20.4 °F 19.6 °F 61% 29.98 in 10.0 mi NNW 17.3 mph 24.2 mph N/A   Scattered Clouds
12:56 AM 31.1 °F 21.4 °F 19.4 °F 62% 29.98 in 10.0 mi NNW 12.7 mph 26.5 mph N/A   Clear
1:15 AM 30.7 °F 19.2 °F 19.2 °F 62% 29.98 in 10.0 mi NNW 17.3 mph 25.3 mph N/A   Scattered Clouds
1:36 AM 30.2 °F 17.8 °F 19.2 °F 64% 29.98 in 10.0 mi NNW 19.6 mph 26.5 mph N/A   Scattered Clouds
1:56 AM 29.8 °F 18.4 °F 18.9 °F 64% 29.98 in 10.0 mi NNW 16.1 mph 24.2 mph N/A   Scattered Clouds
2:15 AM 29.3 °F 17.0 °F 18.5 °F 64% 29.97 in 10.0 mi NNW 18.4 mph 27.6 mph N/A   Scattered Clouds
2:36 AM 29.3 °F 16.2 °F 18.1 °F 63% 29.98 in 10.0 mi NNW 20.7 mph 26.5 mph N/A   Scattered Clouds
2:56 AM 29.3 °F 18.2 °F 17.6 °F 62% 29.97 in 10.0 mi NNW 15.0 mph 26.5 mph N/A   Scattered Clouds
3:15 AM 29.1 °F 16.0 °F 17.8 °F 63% 29.97 in 10.0 mi NNW 20.7 mph 25.3 mph N/A   Scattered Clouds
3:36 AM 28.9 °F 18.2 °F 17.4 °F 62% 29.97 in 10.0 mi NNW 13.8 mph 24.2 mph N/A   Scattered Clouds
3:56 AM 28.9 °F 18.6 °F 17.6 °F 63% 29.98 in 10.0 mi NNW 12.7 mph 26.5 mph N/A   Mostly Cloudy
4:15 AM 28.4 °F 17.0 °F 17.4 °F 63% 29.97 in 10.0 mi NNW 15.0 mph 24.2 mph N/A   Scattered Clouds
4:36 AM 28.2 °F 16.3 °F 16.5 °F 62% 29.98 in 10.0 mi NNW 16.1 mph 25.3 mph N/A   Clear
4:56 AM 27.9 °F 17.8 °F 16.3 °F 62% 29.98 in 10.0 mi NNW 11.5 mph 19.6 mph N/A   Scattered Clouds
5:15 AM 27.7 °F 15.6 °F 16.7 °F 63% 29.99 in 10.0 mi NNW 16.1 mph 21.9 mph N/A   Mostly Cloudy
5:36 AM 27.3 °F 16.1 °F 16.7 °F 64% 29.99 in 10.0 mi NNW 13.8 mph 23.0 mph N/A   Mostly Cloudy
5:55 AM 26.6 °F 15.2 °F 16.2 °F 65% 30.00 in 10.0 mi NNW 13.8 mph 24.2 mph N/A   Mostly Cloudy
6:15 AM 25.9 °F 14.3 °F 16.5 °F 68% 30.02 in 10.0 mi NNW 13.8 mph 21.9 mph N/A   Scattered Clouds
6:36 AM 25.7 °F 13.5 °F 16.0 °F 67% 30.03 in 10.0 mi NNW 15.0 mph 24.2 mph N/A   Scattered Clouds
6:55 AM 25.7 °F 13.5 °F 15.6 °F 66% 30.04 in 10.0 mi NNW 15.0 mph 20.7 mph N/A   Scattered Clouds
7:15 AM 25.5 °F 14.3 °F 14.9 °F 64% 30.05 in 10.0 mi NW 12.7 mph 20.7 mph N/A   Clear
7:36 AM 25.5 °F 13.8 °F 14.0 °F 62% 30.06 in 10.0 mi NNW 13.8 mph 23.0 mph N/A   Clear
7:55 AM 26.1 °F 15.0 °F 14.4 °F 61% 30.07 in 10.0 mi NW 12.7 mph 19.6 mph N/A   Clear
8:15 AM 26.2 °F 15.2 °F 13.1 °F 58% 30.08 in 10.0 mi NNW 12.7 mph 23.0 mph N/A   Clear
8:36 AM 26.6 °F 13.4 °F 12.4 °F 55% 30.08 in 10.0 mi NNW 18.4 mph 25.3 mph N/A   Clear
8:55 AM 26.4 °F 14.5 °F 11.3 °F 53% 30.09 in 10.0 mi NNW 15.0 mph 24.2 mph N/A   Clear
9:15 AM 26.4 °F 14.5 °F 11.1 °F 53% 30.09 in 10.0 mi NNW 15.0 mph 23.0 mph N/A   Clear
9:36 AM 28.4 °F 18.0 °F 11.7 °F 50% 30.09 in 10.0 mi NNW 12.7 mph 20.7 mph N/A   Clear
9:55 AM 29.1 °F 16.7 °F 11.1 °F 47% 30.09 in 10.0 mi North 18.4 mph 24.2 mph N/A   Clear
10:15 AM 29.5 °F 18.8 °F 11.1 °F 46% 30.09 in 10.0 mi NNW 13.8 mph 20.7 mph N/A   Clear
10:36 AM 29.8 °F 18.9 °F 10.0 °F 44% 30.09 in 10.0 mi NW 15.0 mph 23.0 mph N/A   Clear
10:55 AM 29.8 °F 19.3 °F 9.5 °F 43% 30.09 in 10.0 mi NNW 13.8 mph 20.7 mph N/A   Clear
11:15 AM 31.1 °F 20.1 °F 9.1 °F 40% 30.09 in 10.0 mi NNW 16.1 mph 23.0 mph N/A   Clear
11:35 AM 32.0 °F 21.2 °F 8.8 °F 38% 30.09 in 10.0 mi NW 16.1 mph 25.3 mph N/A   Clear
11:55 AM 32.4 °F 21.3 °F 8.1 °F 36% 30.10 in 10.0 mi NW 17.3 mph 24.2 mph N/A   Clear
12:16 PM 32.9 °F 22.8 °F 7.2 °F 34% 30.09 in 10.0 mi NNW 15.0 mph 23.0 mph N/A   Clear
12:35 PM 32.7 °F 21.4 °F 5.7 °F 32% 30.09 in 10.0 mi NNW 18.4 mph 28.8 mph N/A   Clear
12:55 PM 32.9 °F 21.3 °F 5.7 °F 32% 30.09 in 10.0 mi NW 19.6 mph 27.6 mph N/A   Scattered Clouds
1:16 PM 34.3 °F 25.0 °F 7.0 °F 32% 30.09 in 10.0 mi NW 13.8 mph 27.6 mph N/A   Scattered Clouds
1:35 PM 34.5 °F 23.4 °F 7.0 °F 32% 30.09 in 10.0 mi NNW 19.6 mph 27.6 mph N/A   Mostly Cloudy
1:55 PM 34.9 °F 25.3 °F 7.0 °F 31% 30.09 in 10.0 mi NNW 15.0 mph 24.2 mph N/A   Mostly Cloudy
2:16 PM 33.8 °F 23.2 °F 6.4 °F 32% 30.09 in 10.0 mi NW 17.3 mph 25.3 mph N/A   Scattered Clouds
2:35 PM 33.8 °F 23.5 °F 5.2 °F 30% 30.09 in 10.0 mi NNW 16.1 mph 21.9 mph N/A   Mostly Cloudy
2:55 PM 33.8 °F 25.3 °F 6.1 °F 31% 30.09 in 10.0 mi NW 11.5 mph 24.2 mph N/A   Mostly Cloudy
3:16 PM 34.5 °F 24.5 °F 5.7 °F 30% 30.08 in 10.0 mi NW 16.1 mph 20.7 mph N/A   Mostly Cloudy
3:35 PM 33.3 °F 23.2 °F 4.8 °F 30% 30.08 in 10.0 mi NNW 15.0 mph 20.7 mph N/A   Overcast
3:55 PM 34.3 °F 25.5 °F 3.4 °F 27% 30.07 in 10.0 mi WNW 12.7 mph 19.6 mph N/A   Mostly Cloudy
4:16 PM 34.5 °F 25.3 °F 3.9 °F 28% 30.07 in 10.0 mi WNW 13.8 mph 21.9 mph N/A   Mostly Cloudy
4:35 PM 33.8 °F 23.2 °F 3.7 °F 28% 30.07 in 10.0 mi NNW 17.3 mph 21.9 mph N/A   Mostly Cloudy
4:55 PM 34.2 °F 23.6 °F 5.4 °F 30% 30.07 in 10.0 mi NW 17.3 mph 23.0 mph N/A   Scattered Clouds
5:16 PM 32.7 °F 23.0 °F 5.5 °F 32% 30.07 in 10.0 mi NW 13.8 mph 24.2 mph N/A   Clear
5:35 PM 32.0 °F 22.5 °F 5.0 °F 32% 30.07 in 10.0 mi WNW 12.7 mph 19.6 mph N/A   Clear
5:55 PM 33.8 °F 22.8 °F 5.7 °F 31% 30.07 in 10.0 mi West 18.4 mph 23.0 mph N/A   Mostly Cloudy
6:15 PM 32.7 °F 23.9 °F 6.3 °F 33% 30.08 in 10.0 mi WNW 11.5 mph 23.0 mph N/A   Scattered Clouds
6:35 PM 32.0 °F 22.5 °F 5.2 °F 32% 30.08 in 10.0 mi WNW 12.7 mph 17.3 mph N/A   Scattered Clouds
6:56 PM 32.0 °F 22.1 °F 5.9 °F 33% 30.08 in 10.0 mi WNW 13.8 mph 25.3 mph N/A   Mostly Cloudy
7:15 PM 30.7 °F 20.9 °F 5.5 °F 35% 30.09 in 10.0 mi WNW 12.7 mph 17.3 mph N/A   Scattered Clouds
7:35 PM 30.2 °F 19.3 °F 4.8 °F 34% 30.09 in 10.0 mi NW 15.0 mph 18.4 mph N/A   Scattered Clouds
7:56 PM 29.7 °F 20.7 °F 7.9 °F 40% 30.10 in 10.0 mi WNW 10.4 mph 19.6 mph N/A   Clear
8:15 PM 29.3 °F 20.2 °F 9.1 °F 43% 30.11 in 10.0 mi WNW 10.4 mph - N/A   Clear
8:35 PM 28.6 °F 19.3 °F 8.6 °F 43% 30.11 in 10.0 mi WNW 10.4 mph 17.3 mph N/A   Clear
8:56 PM 27.5 °F 19.3 °F 12.6 °F 54% 30.12 in 10.0 mi WNW 8.1 mph - N/A   Clear
9:15 PM 27.3 °F 17.7 °F 10.4 °F 49% 30.12 in 10.0 mi NW 10.4 mph - N/A   Clear
9:35 PM 26.8 °F 17.1 °F 12.7 °F 56% 30.13 in 10.0 mi NW 10.4 mph - N/A   Clear
9:56 PM 26.4 °F 16.6 °F 11.3 °F 53% 30.13 in 10.0 mi WNW 10.4 mph - N/A   Clear
10:15 PM 25.7 °F 16.4 °F 11.1 °F 54% 30.13 in 10.0 mi NW 9.2 mph - N/A   Clear
10:35 PM 25.3 °F 16.7 °F 11.1 °F 55% 30.13 in 10.0 mi WNW 8.1 mph - N/A   Clear
10:56 PM 25.2 °F 16.5 °F 9.7 °F 52% 30.13 in 10.0 mi WNW 8.1 mph 17.3 mph N/A   Clear
11:15 PM 24.6 °F 15.8 °F 9.5 °F 53% 30.13 in 10.0 mi WNW 8.1 mph - N/A   Clear
11:35 PM 24.1 °F 15.2 °F 9.5 °F 54% 30.13 in 10.0 mi WNW 8.1 mph - N/A   Clear
11:56 PM 23.7 °F 14.7 °F 9.1 °F 54% 30.14 in 10.0 mi WNW 8.1 mph - N/A   Clear